FW1193 Weather Reports


time (UTC)temp
C
wind
direction
speed
KPH
gust
KPH
rain 1hr
cm
rain 24hr
cm
rain mn
cm
humidity
%
barometer
mb
20260502223425 23 58 4.8 16.1 0.00 1.02 0.51 41 1014.9
20260502222922 23 251 3.2 16.1 0.00 1.04 0.51 40 1014.9
20260502222419 24 91 3.2 14.5 0.00 1.04 0.51 42 1014.8
20260502221920 24 346 3.2 14.5 0.00 1.07 0.51 40 1014.8
20260502221420 24 221 3.2 9.7 0.00 1.07 0.51 41 1014.8
20260502220917 24 53 3.2 9.7 0.00 1.07 0.51 41 1014.9
20260502220419 24 296 1.6 9.7 0.00 1.07 0.51 40 1014.8
20260502215918 24 19 1.6 9.7 0.00 1.09 0.51 41 1014.7
20260502215417 24 281 1.6 4.8 0.00 1.09 0.51 40 1014.7
20260502214859 24 238 1.6 8.0 0.00 1.09 0.51 42 1014.7
20260502214631 24 72 3.2 8.0 0.00 1.09 0.51 41 1014.7
20260502213900 23 298 3.2 9.7 0.00 1.12 0.51 42 1014.6
20260502213630 23 271 4.8 16.1 0.00 1.14 0.51 40 1014.6
20260502212858 23 10 3.2 16.1 0.00 1.22 0.51 40 1014.7
20260502212358 23 5 3.2 11.3 0.00 1.32 0.51 41 1014.6
20260502211850 23 315 3.2 11.3 0.00 1.37 0.51 40 1014.7
20260502211340 23 59 4.8 11.3 0.00 1.45 0.51 39 1014.7
20260502210340 23 52 3.2 12.9 0.00 1.57 0.51 42 1014.7
20260502205839 23 335 4.8 17.7 0.00 1.63 0.51 41 1014.7
20260502205339 23 329 3.2 17.7 0.00 1.65 0.51 41 1014.8
20260502204838 23 49 3.2 6.4 0.00 1.68 0.51 42 1014.8
20260502204609 23 73 3.2 9.7 0.00 1.70 0.51 42 1014.8
20260502204108 23 62 3.2 11.3 0.00 1.73 0.51 45 1014.9
20260502203615 23 238 3.2 16.1 0.00 1.85 0.51 44 1015.0
20260502203338 23 288 3.2 11.3 0.00 1.78 0.51 41 1014.9
20260502202338 23 53 4.8 17.7 0.00 1.91 0.51 45 1015.1
20260502201836 23 340 4.8 17.7 0.00 2.03 0.51 44 1015.1
20260502201337 23 94 3.2 16.1 0.00 2.18 0.51 46 1015.3
20260502200831 23 236 3.2 14.5 0.00 2.24 0.51 45 1015.4
20260502200602 23 325 4.8 14.5 0.00 2.26 0.51 42 1015.3
20260502200100 23 350 3.2 9.7 0.00 2.34 0.51 44 1015.4
20260502195328 23 232 3.2 9.7 0.00 2.41 0.51 46 1015.5
20260502194827 23 283 3.2 19.3 0.00 2.69 0.51 46 1015.5
20260502194543 23 96 3.2 19.3 0.00 2.92 0.51 46 1015.5
20260502194033 23 88 3.2 9.7 0.00 3.12 0.51 47 1015.4
20260502193258 23 89 3.2 9.7 0.00 3.15 0.51 49 1015.5
20260502192758 23 24 3.2 14.5 0.00 3.20 0.51 47 1015.5
20260502192257 23 35 3.2 14.5 0.00 3.25 0.51 46 1015.5
20260502191757 23 221 3.2 8.0 0.00 3.38 0.51 47 1015.5
20260502191256 23 306 3.2 9.7 0.00 3.45 0.51 50 1015.6
20260502190757 23 225 3.2 9.7 0.00 3.53 0.51 49 1015.5
20260502190255 22 315 3.2 9.7 0.00 3.61 0.51 51 1015.5
20260502185749 22 57 3.2 6.4 0.00 3.71 0.51 52 1015.5
20260502185249 22 71 3.2 17.7 0.00 3.86 0.51 55 1015.6
20260502184749 22 285 4.8 17.7 0.00 3.94 0.51 52 1015.7
20260502184243 22 17 4.8 14.5 0.00 4.04 0.51 53 1015.7
20260502183742 22 278 3.2 8.0 0.00 4.14 0.51 55 1015.7
20260502183514 22 144 3.2 8.0 0.00 4.24 0.51 59 1015.7
20260502182742 22 115 3.2 17.7 0.00 4.29 0.51 54 1015.8
20260502181737 22 114 3.2 17.7 0.00 4.45 0.51 55 1015.8
20260502181236 21 50 4.8 17.7 0.00 4.52 0.51 58 1015.9
20260502180742 22 313 3.2 9.7 0.00 4.57 0.51 60 1015.9
20260502180737 22 290 3.2 11.3 0.00 4.55 0.51 55 1015.9
20260502170209 21 78 3.2 9.7 0.00 4.60 0.51 65 1016.5
20260502164205 21 286 1.6 6.4 0.00 4.60 0.51 65 1016.5
20260502163706 21 80 1.6 14.5 0.00 4.60 0.51 66 1016.5
20260502163200 21 76 3.2 14.5 0.00 4.60 0.51 65 1016.5
20260502162927 20 93 3.2 12.9 0.00 4.60 0.51 66 1016.6
20260502162155 20 80 3.2 12.9 0.00 4.60 0.51 67 1016.6
20260502161655 20 315 3.2 11.3 0.00 4.60 0.51 67 1016.6
20260502161157 20 59 3.2 11.3 0.00 4.60 0.51 67 1016.6
20260502160653 20 338 1.6 9.7 0.00 4.60 0.51 70 1016.6
20260502160153 20 295 3.2 16.1 0.00 4.60 0.51 69 1016.7
20260502152137 18 316 3.2 16.1 0.00 4.60 0.51 73 1016.3
20260502151636 18 69 3.2 16.1 0.00 4.60 0.51 73 1016.3
20260502151135 18 333 1.6 8.0 0.00 4.60 0.51 72 1016.2
20260502150633 18 60 3.2 8.0 0.00 4.60 0.51 73 1016.2
20260502150134 18 71 3.2 9.7 0.00 4.60 0.51 76 1016.2
20260502130513 13 355 1.6 6.4 0.00 4.60 0.51 94 1015.0
20260502123502 12 60 1.6 4.8 0.00 4.60 0.51 95 1014.7
20260502123003 12 74 1.6 4.8 0.00 4.60 0.51 95 1014.7
20260502122502 12 78 0.0 4.8 0.00 4.60 0.51 95 1014.5
20260502122003 12 5 0.0 3.2 0.00 4.60 0.51 95 1014.4
20260502121503 12 26 0.0 4.8 0.00 4.60 0.51 95 1014.4
20260502121004 12 26 0.0 4.8 0.00 4.60 0.51 95 1014.2
20260502120503 11 321 0.0 0.0 0.00 4.60 0.51 95 1014.1
20260502115451 11 321 0.0 0.0 0.00 4.60 0.51 95 1013.8
20260502115214 11 321 0.0 0.0 0.00 4.60 0.51 95 1013.6
20260502114435 11 321 0.0 0.0 0.00 4.60 0.51 95 1013.6
20260502113930 11 321 0.0 0.0 0.00 4.60 0.51 95 1013.6
20260502113429 11 321 0.0 0.0 0.00 4.60 0.51 95 1013.5
20260502112923 11 321 0.0 0.0 0.00 4.60 0.51 95 1013.6
20260502112413 11 321 0.0 0.0 0.00 4.60 0.51 95 1013.4
20260502111901 11 305 0.0 3.2 0.00 4.60 0.51 95 1013.4
20260502111349 11 305 0.0 3.2 0.00 4.60 0.51 95 1013.4
20260502110837 11 266 0.0 1.6 0.00 4.60 0.51 95 1013.4
20260502110337 11 266 0.0 1.6 0.00 4.60 0.51 95 1013.2
20260502105834 11 266 0.0 1.6 0.00 4.60 0.51 95 1013.2
20260502105327 11 266 0.0 3.2 0.00 4.60 0.51 95 1013.2
20260502104809 11 266 0.0 3.2 0.00 4.60 0.51 95 1013.2
20260502104307 11 266 0.0 3.2 0.00 4.60 0.51 95 1013.3
20260502103805 11 266 1.6 3.2 0.00 4.60 0.51 95 1013.2
20260502103305 11 265 0.0 3.2 0.00 4.60 0.51 95 1013.3
20260502102806 11 327 0.0 4.8 0.00 4.60 0.51 95 1013.3
20260502102306 11 344 0.0 4.8 0.00 4.60 0.51 95 1013.2
20260502101805 11 28 0.0 3.2 0.00 4.60 0.51 95 1013.1
20260502101253 11 5 1.6 3.2 0.00 4.60 0.51 95 1012.9
20260502100751 11 318 1.6 3.2 0.00 4.60 0.51 95 1013.0
20260502100508 11 134 0.0 3.2 0.00 4.60 0.51 95 1012.9
20260502091418 11 75 1.6 6.4 0.05 4.62 0.51 95 1012.4
20260502090646 11 11 1.6 6.4 0.05 4.62 0.51 95 1012.5
20260502090138 11 138 1.6 4.8 0.08 4.62 0.51 95 1012.4
20260502070514 11 315 1.6 6.4 0.20 4.55 0.38 95 1012.6
20260502070246 11 38 0.0 6.4 0.20 4.52 0.36 95 1012.6
20260502065514 11 202 1.6 4.8 0.20 4.50 0.36 95 1012.8
20260502065014 11 133 1.6 4.8 0.20 4.50 0.33 95 1012.8
20260502064747 11 50 1.6 4.8 0.18 4.47 0.30 95 1012.3
20260502064005 11 56 1.6 4.8 0.18 4.45 0.28 95 1012.4
20260502063500 11 291 1.6 4.8 0.18 4.45 0.28 95 1012.5
20260502062946 12 25 1.6 3.2 0.20 4.45 0.28 95 1012.4
20260502062445 12 50 1.6 4.8 0.23 4.45 0.28 95 1012.2
20260502061947 12 53 0.0 4.8 0.25 4.45 0.28 95 1012.2
20260502061940 12 9 0.0 0.0 0.23 4.42 0.25 95 1012.5
20260502060931 12 9 0.0 0.0 0.18 4.37 0.20 95 1013.2
20260502060431 12 9 0.0 1.6 0.15 4.34 0.18 95 1013.1
20260502055930 12 9 0.0 3.2 0.15 4.32 0.18 95 1013.2
20260502055433 12 9 0.0 3.2 0.13 4.29 0.13 95 1012.6
20260502054925 12 5 0.0 3.2 0.13 4.29 0.13 95 1012.6
20260502054427 12 339 0.0 1.6 0.15 4.29 0.13 95 1012.9
20260502054157 12 347 0.0 3.2 0.13 4.27 0.10 95 1012.8
20260502053414 12 347 0.0 3.2 0.13 4.27 0.10 95 1012.7
20260502052906 12 49 0.0 3.2 0.10 4.24 0.08 95 1012.7
20260502052347 12 49 0.0 3.2 0.08 4.22 0.05 95 1012.8
20260502052111 12 46 1.6 4.8 0.05 4.19 0.03 95 1012.7
20260502051339 12 298 1.6 4.8 0.05 4.19 0.03 95 1012.9
20260502050840 12 36 1.6 6.4 0.05 4.19 0.03 95 1012.8
20260502050338 12 0 1.6 6.4 0.03 4.17 0.00 95 1012.6
20260502045837 12 94 1.6 4.8 0.03 4.17 4.17 95 1012.5
20260502045337 12 51 1.6 6.4 0.03 4.17 4.17 95 1012.4
20260502045108 12 63 1.6 6.4 0.03 4.17 4.17 95 1012.6
20260502044608 12 9 1.6 6.4 0.00 4.14 4.14 95 1012.5
20260502043837 12 323 1.6 6.4 0.00 4.14 4.14 95 1012.4
20260502043338 12 69 1.6 4.8 0.00 4.14 4.14 95 1012.0
20260502042836 12 323 1.6 3.2 0.00 4.14 4.14 95 1012.0
20260502042337 12 57 1.6 3.2 0.00 4.14 4.14 95 1012.0
20260502041836 12 59 1.6 4.8 0.00 4.14 4.14 95 1011.9
20260502041338 12 59 1.6 4.8 0.00 4.14 4.14 95 1011.9
20260502040833 12 60 0.0 3.2 0.00 4.14 4.14 95 1012.0
20260502040333 12 52 1.6 3.2 0.00 4.14 4.14 95 1012.0
20260502035833 12 51 1.6 4.8 0.00 4.14 4.14 95 1012.1
20260502035327 12 311 1.6 6.4 0.00 4.14 4.14 95 1012.0
20260502034827 12 63 1.6 6.4 0.00 4.14 4.14 95 1011.9
20260502034324 12 61 1.6 9.7 0.00 4.14 4.14 95 1011.9
20260502033825 12 142 1.6 9.7 0.00 4.14 4.14 95 1012.1
20260502033321 12 16 1.6 4.8 0.00 4.14 4.14 95 1012.0
20260502032820 12 88 1.6 4.8 0.00 4.14 4.14 95 1012.1
20260502032318 12 82 1.6 4.8 0.00 4.14 4.14 95 1012.0
20260502031807 12 93 1.6 4.8 0.00 4.14 4.14 95 1012.0
20260502031302 12 234 1.6 9.7 0.00 4.14 4.14 95 1011.6
20260502031032 12 173 1.6 9.7 0.00 4.14 4.14 95 1011.7
20260502030524 12 19 1.6 3.2 0.00 4.14 4.14 95 1011.8
20260502030023 12 355 1.6 8.0 0.00 4.14 4.14 95 1011.8
20260502025250 12 68 1.6 8.0 0.00 4.14 4.14 95 1011.8
20260502024740 12 48 1.6 6.4 0.00 4.14 4.14 95 1011.8
20260502024240 12 36 1.6 6.4 0.00 4.14 4.14 95 1011.8
20260502023738 12 67 1.6 4.8 0.00 4.14 4.14 96 1011.8
20260502023238 12 42 1.6 4.8 0.00 4.14 4.14 96 1011.8
20260502023003 12 278 1.6 4.8 0.00 4.14 4.14 96 1011.8
20260502022234 12 57 1.6 4.8 0.00 4.14 4.14 96 1011.7
20260502021728 12 81 1.6 4.8 0.00 4.14 4.14 96 1011.6
20260502021225 12 5 1.6 4.8 0.00 4.14 4.14 96 1011.3
20260502020727 12 48 1.6 4.8 0.00 4.14 4.14 96 1011.4
20260502020214 12 42 1.6 6.4 0.00 4.14 4.14 96 1011.2
20260502015714 12 61 1.6 6.4 0.00 4.14 4.14 96 1010.9
20260502015214 12 53 0.0 3.2 0.00 4.14 4.14 96 1010.8
20260502014708 12 72 1.6 3.2 0.00 4.14 4.14 96 1010.8
20260502014413 12 73 1.6 4.8 0.00 4.14 4.14 96 1010.7
20260502013639 13 45 1.6 4.8 0.00 4.14 4.14 96 1010.8
20260502013141 13 114 1.6 4.8 0.00 4.14 4.14 96 1010.5
20260502012631 13 199 1.6 4.8 0.03 4.14 4.14 96 1010.5
20260502012130 13 53 1.6 4.8 0.05 4.14 4.14 96 1010.3
20260502011627 13 126 1.6 4.8 0.05 4.14 4.14 96 1010.2
20260502011124 13 63 1.6 12.9 0.05 4.14 4.14 96 1009.5
20260502010844 13 38 1.6 11.3 0.08 4.14 4.14 96 1009.4
20260502010111 12 71 1.6 8.0 0.10 4.14 4.14 96 1009.2
20260502005612 13 42 1.6 8.0 0.13 4.14 4.14 96 1008.8
20260502005106 13 101 1.6 8.0 0.23 4.14 4.14 96 1008.6
20260502004602 12 100 3.2 9.7 0.30 4.14 4.14 96 1008.8
20260502004055 13 11 3.2 9.7 0.33 4.14 4.14 96 1009.1
20260502003825 13 104 3.2 6.4 0.36 4.14 4.14 96 1009.2
20260502003053 13 95 3.2 6.4 0.38 4.14 4.14 95 1009.4
20260502002551 13 60 1.6 6.4 0.33 4.09 4.09 95 1009.6
20260502002053 13 72 0.0 4.8 0.36 4.09 4.09 95 1010.4
20260502001554 13 36 0.0 0.0 0.36 4.09 4.09 95 1010.3
20260502001039 13 39 0.0 0.0 0.38 4.09 4.09 95 1009.7
20260502000540 13 36 0.0 1.6 0.36 4.06 4.06 95 1010.6
20260502000040 13 36 0.0 3.2 0.33 4.04 4.04 95 1010.6
20260501235810 13 123 0.0 3.2 0.28 3.99 4.01 95 1010.6
20260501235311 13 90 0.0 1.6 0.23 3.91 3.91 95 1011.8
20260501234540 13 90 0.0 3.2 0.15 3.84 3.86 95 1011.7
20260501234037 12 44 1.6 4.8 0.13 3.78 3.78 95 1010.5
20260501234033 13 90 0.0 4.8 0.15 3.81 3.81 95 1010.6
20260501233029 12 132 1.6 4.8 0.10 3.76 3.76 95 1010.2
20260501232529 12 96 1.6 4.8 0.13 3.78 3.76 95 1010.0
20260501232028 12 65 1.6 4.8 0.13 3.81 3.73 95 1010.1
20260501231520 13 123 1.6 6.4 0.13 3.84 3.73 95 1010.8
20260501231019 13 157 1.6 6.4 0.10 3.84 3.71 95 1010.7
20260501230520 13 49 1.6 8.0 0.10 3.86 3.71 95 1010.6
20260501230247 12 67 1.6 8.0 0.10 3.89 3.71 95 1010.6
20260501225747 13 90 3.2 8.0 0.10 3.86 3.68 95 1010.4
20260501225009 13 103 3.2 8.0 0.10 3.86 3.68 95 1010.4
20260501224511 13 52 1.6 4.8 0.10 3.86 3.68 95 1010.7
20260501224005 13 190 1.6 9.7 0.10 3.84 3.66 95 1010.3